Current Version              Previous Version:    01  02  03  04  05  06  07  08  09  10  11  12  13  14  15  16  17  18  19  20  21  22  23  24  25  26  27  28  29  30  
   31  32  33  34  35  36  37  38  39  40  41  42  43  44  45  46  47  48  49  50  51  52  53  54  55  56  57  58  59  60  

[Printable]
024
ASUS44 KFWD 261503
RWRTX
NORTH TEXAS HOURLY WEATHER ROUNDUP
NATIONAL WEATHER SERVICE FORT WORTH TX
900 AM CST WED NOV 26 2014

NOTE: "FAIR" INDICATES FEW OR NO CLOUDS BELOW 12,000 FEET WITH NO
SIGNIFICANT WEATHER AND/OR OBSTRUCTIONS TO VISIBILITY.

TXZ118-119-261600-
DALLAS/FORT WORTH METROPLEX

CITY           SKY/WX    TMP DP  RH WIND       PRES   REMARKS
DFW AIRPORT    PTSUNNY   49  28  44 W8        30.11R
DALLAS LOVE    MOSUNNY   49  31  49 SW5       30.11R
FTW MEACHAM    SUNNY     51  28  41 W9        30.11R
DAL-EXECUTIVE  SUNNY     53  27  36 W10       30.10R
FTW-ALLIANCE   PTSUNNY   50  26  39 NW12G18   30.12R
FTW-SPINKS     SUNNY     52  27  37 W8        30.14R
ARLINGTON      SUNNY     50  30  46 SW5       30.12R
GRAND PRAIRIE  SUNNY    N/A N/A N/A SW5       30.14
ADDISON        SUNNY     48  28  46 CALM      30.12R
MESQUITE       SUNNY     46  32  57 S5        30.12R
LANCASTER      SUNNY     49  29  46 W6        30.13R
$$

TXZ091>094-102>105-117-120-121-131>134-261600-
NORTH CENTRAL TEXAS

CITY           SKY/WX    TMP DP  RH WIND       PRES   REMARKS
SHRMAN/DENISON SUNNY     47  33  57 NW9       30.11R
BRIDGEPORT     SUNNY     49  30  47 NW8G16    30.13S
DECATUR        SUNNY     46  25  43 NW10G16   30.11R
DENTON         SUNNY     48  29  47 NW10      30.11R
MCKINNEY       SUNNY     48  33  56 SW5       30.09R
ROCKWALL       SUNNY     49  31  49 SW7       30.10R
TERRELL        SUNNY     51  32  48 SW10      30.12R
WAXAHACHIE     SUNNY     50  31  48 W13       30.13R
CLEBURNE       SUNNY     50  27  40 W13       30.13R
GRANBURY       SUNNY     52  29  40 W7        30.14R
$$

TXZ083>090-098>101-113>116-127>130-139>142-154-155-261600-
WESTERN NORTH TEXAS

CITY           SKY/WX    TMP DP  RH WIND       PRES   REMARKS
WICHITA FALLS  MOSUNNY   44  31  60 NW14      30.19R WCI  37
WF-KICKAPOO    SUNNY     44  29  55 NW10      30.21R WCI  39
ABILENE        SUNNY     50  22  33 NW15      30.18R
ABILENE-DYESS  SUNNY     50  24  35 NW22      30.19R
MINERAL WELLS  SUNNY     48  29  47 W9        30.12R
STEPHENVILLE   SUNNY     51  23  33 W9        30.16R
COMANCHE       SUNNY     51  26  39 W12       30.15R
COLEMAN        SUNNY     50  27  41 W13       30.18R
$$

TXZ143>147-156>162-174-175-261600-
CENTRAL TEXAS

CITY           SKY/WX    TMP DP  RH WIND       PRES   REMARKS
WACO           SUNNY     52  32  46 SW9       30.15R
WACO-MCGREGOR  SUNNY     52  34  50 SW14      30.15S
CORSICANA      SUNNY     51  32  48 SW15G22   30.14R
MEXIA          SUNNY     51  33  50 SW14      30.15R
HEARNE         SUNNY     55  35  46 SW9G16    30.20S
CAMERON        SUNNY     54  34  47 SW18G26   30.19R
TEMPLE         SUNNY     50  32  50 SW8       30.16R
KILLEEN        SUNNY     50  30  45 SW12      30.17R
KILLEEN-SKYLRK SUNNY     54  28  37 SW9       30.15R
FORT HOOD      SUNNY     55  28  35 SW14      30.16R
GATESVILLE     SUNNY     54  30  40 W12       30.17S
HAMILTON       SUNNY     53  26  35 W17G25    30.16R
LAMPASAS       SUNNY     55  33  42 W12G20    30.16R
$$

TXZ095>097-106>112-122>126-135>138-148>153-164>167-261600-
EAST TEXAS

CITY           SKY/WX    TMP DP  RH WIND       PRES   REMARKS
PARIS          SUNNY     46  34  61 W12       30.09R
SULPHUR SPRNGS SUNNY     51  31  47 W7        30.11S
MOUNT PLEASANT SUNNY     52  33  47 SW14      30.12R
MINEOLA        SUNNY     52  30  43 SW9       30.12R
TYLER          SUNNY     53  31  42 SW13      30.12R
LONGVIEW       SUNNY     51  33  50 SW10      30.11R
MARSHALL       SUNNY     51  39  63 SW7       30.12S
ATHENS         SUNNY     50  32  50 SW6       30.13R
PALESTINE      SUNNY     49  35  58 S7        30.18R
JACKSONVILLE   SUNNY     49  34  55 SW13G18   30.14R
HENDERSON      SUNNY     49  36  61 SW8       30.13S
NACOGDOCHES    SUNNY     52  36  54 SW10G17   30.16R
LUFKIN         SUNNY     55  38  52 SW10      30.17R
$$

SUPPLEMENTAL OBSERVATIONS (CENTRAL)

CITY           SKY/WX    TMP DP  RH WIND       PRES   REMARKS
$$

SUPPLEMENTAL OBSERVATIONS (WEST)

CITY           SKY/WX    TMP DP  RH WIND       PRES   REMARKS
$$

SUPPLEMENTAL OBSERVATIONS (EAST)

CITY           SKY/WX    TMP DP  RH WIND       PRES   REMARKS
$$

SUPPLEMENTAL OBSERVATIONS ARE A COLLECTION OF AUTOMATED INSTRUMENTS
THAT ARE MAINTAINED BY A VARIETY OF FEDERAL AND STATE AGENCIES.
CERTAIN ELEMENTS...SUCH AS HUMIDITY VALUES AND SUSTAINED WIND
SPEEDS...MAY BE APPROXIMATED.